x

Santa Monica Basin - 33nm Wsw Of Santa Monica, Ca (46025) Wave Buoy

8:50 - Sat 4th Jul 2015 All times are PDT. -7 hours from GMT.

  • Sig Wave height 3.3ft
  • Swell Direction
  • Peak Period 5s
  • Average Period 5s
  • Wind
    9mph, 13mph gusts
  • Sea Temp 67°f
  • Aire Temp 64°f
  • Sea Pressure 1012.4mb
  • Santa Monica Basin - 33nm Wsw Of Santa Monica, Ca
  • Santa Monica Basin - 33nm Wsw Of Santa Monica, Ca

More Historic Weather Station data

Upgrade to MSW Pro to gain access to the past 30 days of data for over 8000 Wavebouys and Weather Stations around the globe.

Join Pro

Comparision Forecast

View Surf forecast
   
sáb 07/04 8:50 3.5ft 5s 5s 9 13 mph 1012.4mb 67f 64f
7:50 3.5ft 16s 5s 9 11 mph 1012.1mb 68f 63f
6:50 2.5ft 15s 5s 13 18 mph 1011.4mb 68f 65f
5:50 2.5ft 16s 5s 11 13 mph 1011.6mb 68f 64f
4:50 2.5ft 16s 5s 16 18 mph 1011.7mb 68f 64f
3:50 2.5ft 16s 5s 16 18 mph 1012.3mb 68f 64f
2:50 2.5ft 15s 5s 13 16 mph 1012.6mb 68f 64f
1:50 2.5ft 16s 5s 11 13 mph 1013mb 68f 64f
12:50 2.5ft 15s 6s 9 11 mph 1013.1mb 68f 64f
11:50 2.5ft 13s 5s 4 7 mph 1013.1mb 68f 63f
10:50 3ft 16s 5s 7 9 mph 1012.8mb 68f 64f
9:50 3ft 5s 5s 4 7 mph 1012.7mb 68f 64f
8:50 3ft 5s 5s 2 4 mph 1012.4mb 68f 64f
7:50 3.5ft 5s 5s 2
mph
1012.1mb 68f 63f
6:50 3.5ft 6s 5s 2 7 mph 1012mb 68f 62f
5:50 3.5ft 6s 5s 13 18 mph 1011.9mb 68f 62f
4:50 3ft 6s 5s 4 7 mph 1011.6mb 68f 63f
3:50 3ft 15s 5s 7
mph
1011.6mb 68f 63f
2:50 3.5ft 6s 5s  -  2 mph 1011.6mb 68f 63f
1:50 3.5ft 6s 5s 4 7 mph 1011.7mb 68f 63f
12:50 4ft 6s 5s 7 9 mph 1012mb 68f 64f
vie 07/03 11:50 3.5ft 5s 5s 9 11 mph 1012.2mb 68f 63f
10:50 3.5ft 5s 5s 9 11 mph 1012.1mb 68f 63f
9:50 4ft 5s 5s 11 13 mph 1011.5mb 68f 63f
8:50 3.5ft 5s 5s 16 18 mph 1010.8mb 68f 65f
7:50 3.5ft 5s 5s 11 13 mph 1010.8mb 68f 64f
6:50 3ft 13s 5s 16 18 mph 1010.7mb 68f 65f
5:50 2.5ft 14s 5s 18 20 mph 1011.1mb 68f 64f
4:50 2.5ft 14s 5s 13 16 mph 1012.1mb 69f 64f
3:50 2.5ft 14s 6s 11 13 mph 1012.3mb 69f 64f
2:50 2.5ft 13s 6s 11 13 mph 1013.3mb 69f 65f
1:50 2.5ft 14s 6s 9 13 mph 1013.3mb 69f 64f
12:50 2.5ft 13s 6s 4 9 mph 1014.4mb 69f 64f
11:50 2.5ft 14s 6s 4
mph
1015mb 69f 64f
10:50 2.5ft 14s 6s 4
mph
1015mb 68f 64f
9:50 2.5ft 14s 6s 4 7 mph 1015.3mb 68f 64f
8:50 3ft 14s 6s 2
mph
1015.3mb 68f 64f
7:50 3ft 14s 6s 2 4 mph 1014.9mb 68f 63f
6:50 3ft 14s 6s  -  2 mph 1014.7mb 68f 62f
5:50 3ft 15s 6s 4
mph
1014.7mb 68f 62f
4:50 3ft 14s 6s 9
mph
1014.1mb 68f 62f
3:50 2.5ft 15s 5s 4 7 mph 1014.1mb 68f 64f
2:50 3ft 15s 6s 2 4 mph 1014mb 68f 64f
1:50 3.5ft 14s 6s 7 9 mph 1013.7mb 69f 64f
12:50 3.5ft 15s 5s 9 11 mph 1014.1mb 69f 64f
jue 07/02 11:50 3.5ft 15s 6s 4 9 mph 1014.3mb 68f 64f
10:50 3.5ft 15s 5s 9 11 mph 1014.2mb 69f 63f
9:50 3ft 14s 5s 13
mph
1013.9mb 69f 63f
8:50 2.5ft 14s 6s 13 16 mph 1013.3mb 69f 66f
7:50 2.5ft 13s 5s 9 11 mph 1013.2mb 69f 66f
6:50 2.5ft 15s 6s 13 16 mph 1013.1mb 69f 65f
5:50 2.5ft 15s 6s 13 18 mph 1013.2mb 69f 65f
4:50 2.5ft 14s 7s 13 16 mph 1014.1mb 69f 65f
3:50 2.5ft 15s 7s 11 13 mph 1014.6mb 70f 66f
2:50 2.5ft 15s 8s 9 11 mph 1015.2mb 71f 66f
1:50 2.5ft 15s 7s 4 7 mph 1015.5mb 70f 67f
12:50 2.5ft 14s 7s 2 4 mph 1015.9mb 70f 66f
11:50 2.5ft 15s 7s 4
mph
1015.7mb 69f 65f
10:50 2ft 12s 6s 4
mph
1015.8mb 69f 65f
9:50 2.5ft 15s 7s 2 4 mph 1015.9mb 69f 65f
8:50 2.5ft 15s 6s 7 9 mph 1015.9mb 68f 65f
7:50 2.5ft 16s 7s 4
mph
1015.7mb 68f 65f
6:50 2.5ft 15s 7s 4
mph
1015.3mb 68f 65f
5:50 2.5ft 13s 7s 2 4 mph 1014.9mb 68f 65f
4:50 2.5ft 16s 7s 4 7 mph 1014.2mb 68f 65f
3:50 2.5ft 15s 7s 2 4 mph 1014.2mb 68f 65f
2:50 2.5ft 15s 7s 2 4 mph 1014.2mb 68f 65f
1:50 2.5ft 15s 6s 2 4 mph 1014.3mb 68f 65f
12:50 2.5ft 16s 6s 4 7 mph 1014.2mb 68f 65f
mié 07/01 11:50 2.5ft 15s 6s 4 7 mph 1014mb 67f 65f
10:50 3ft 16s 6s  -  2 mph 1014.4mb 67f 65f
9:50 3ft 14s 6s 4 7 mph 1013.9mb 67f 65f
8:50 2.5ft 14s 6s 2 4 mph 1013.5mb 66f 65f
7:50 3ft 16s 6s 4 7 mph 1013.2mb 66f 65f
6:50 2.5ft 14s 6s 11
mph
1012.2mb 66f 65f
5:50 2.5ft 16s 6s 11 13 mph 1012.1mb 66f 65f
4:50 2.5ft 16s 7s 11 13 mph 1012.1mb 67f 66f
3:50 2.5ft 15s 7s 11
mph
1012.8mb 67f 66f
2:50 2.5ft 14s 7s 9
mph
1013mb 67f 66f
1:50 2.5ft 15s 7s 9 11 mph 1013mb 66f 65f
12:50 2.5ft 13s 6s 4
mph
1013.6mb 66f 65f
11:50  -   -   -  2 4 mph 1013.7mb 66f 65f
10:50 2.5ft 14s 6s 4
mph
1013.6mb 66f 65f
9:50 3ft 14s 6s 7
mph
1013.5mb 66f 65f
8:50 3ft 16s 6s 13
mph
1012.6mb 66f 64f
7:50 3ft 16s 6s 9 11 mph 1012.6mb 66f 65f
6:50 3ft 8s 6s 9
mph
1012.9mb 66f 65f
5:50 3ft 16s 6s 2 4 mph 1013.1mb 66f 65f